When you browse on this site, cookies collect data to enhance your experience and personalize the content and advertising you see.
Visit our Privacy Policy to learn more. By continuing to use the site, you agree to this use of cookies and data.
  • In Romania
  • List of Countries
  • For 7 days
  • Water Temperature
  • Satellite Maps
  • Weather Map
  • Weather Widgets
  • user-avatar
    Login

    Hourly Weather Koczanow

    Today, 22 February, Friday

    Time Temperature Precipitation Wind Pressure Humidity
    00:00 +3°C° 0.4 mm 5 mps 741 mmHg 86%
    01:00 +4°C° 0 mm 4 mps 741 mmHg 86%
    02:00 +4°C° 0.6 mm 4 mps 741 mmHg 87%
    03:00 +3°C° 0.6 mm 5 mps 741 mmHg 88%
    04:00 +3°C° 0.6 mm 5 mps 741 mmHg 89%
    05:00 +2°C° 0.6 mm 6 mps 742 mmHg 87%
    06:00 -1°C° 0.6 mm 7 mps 743 mmHg 84%
    07:00 -4°C° 0.6 mm 8 mps 743 mmHg 82%
    08:00 -3°C° 0.1 mm 7 mps 745 mmHg 76%
    09:00 -3°C° 0.1 mm 7 mps 746 mmHg 70%
    10:00 -4°C° 0.1 mm 7 mps 748 mmHg 64%
    11:00 -4°C° 0 mm 7 mps 748 mmHg 58%
    12:00 -3°C° 0 mm 7 mps 749 mmHg 52%
    13:00 -3°C° 0 mm 7 mps 750 mmHg 46%
    14:00 -4°C° 0 mm 7 mps 751 mmHg 46%
    15:00 -4°C° 0 mm 7 mps 751 mmHg 46%
    16:00 -5°C° 0 mm 6 mps 752 mmHg 45%
    17:00 -5°C° 0 mm 6 mps 752 mmHg 46%
    18:00 -6°C° 0 mm 5 mps 753 mmHg 47%
    19:00 -6°C° 0 mm 5 mps 754 mmHg 47%
    20:00 -6°C° 0 mm 5 mps 754 mmHg 45%
    21:00 -6°C° 0 mm 5 mps 755 mmHg 43%
    22:00 -7°C° 0 mm 5 mps 756 mmHg 40%
    23:00 -7°C° 0 mm 5 mps 756 mmHg 40%

    Tomorrow, 23 February, Saturday

    Time Temperature Precipitation Wind Pressure Humidity
    00:00 -7°C° 0 mm 5 mps 757 mmHg 41%
    01:00 -7°C° 0 mm 4 mps 757 mmHg 41%
    02:00 -7°C° 0 mm 4 mps 757 mmHg 43%
    03:00 -7°C° 0 mm 4 mps 757 mmHg 44%
    04:00 -6°C° 0 mm 3 mps 757 mmHg 46%
    05:00 -6°C° 0 mm 3 mps 757 mmHg 48%
    06:00 -7°C° 0 mm 3 mps 758 mmHg 49%
    07:00 -7°C° 0 mm 3 mps 758 mmHg 51%
    08:00 -6°C° 0 mm 3 mps 758 mmHg 48%
    09:00 -5°C° 0 mm 3 mps 758 mmHg 46%
    10:00 -5°C° 0 mm 3 mps 758 mmHg 43%
    11:00 -4°C° 0 mm 3 mps 758 mmHg 40%
    12:00 -2°C° 0 mm 3 mps 758 mmHg 38%
    13:00 -2°C° 0 mm 3 mps 758 mmHg 35%
    14:00 -2°C° 0 mm 2 mps 758 mmHg 36%
    15:00 -2°C° 0 mm 2 mps 758 mmHg 36%
    16:00 -2°C° 0 mm 2 mps 758 mmHg 37%
    17:00 -1°C° 0 mm 1 mps 758 mmHg 40%
    18:00 -1°C° 0 mm 1 mps 758 mmHg 44%
    19:00 -2°C° 0 mm 1 mps 758 mmHg 47%
    20:00 -2°C° 0 mm 1 mps 758 mmHg 48%
    21:00 -3°C° 0 mm 0 mps 758 mmHg 49%
    22:00 -3°C° 0 mm 0 mps 758 mmHg 50%
    23:00 -3°C° 0 mm 0 mps 758 mmHg 50%

    Day after tomorrow, 24 February, Sunday

    Time Temperature Precipitation Wind Pressure Humidity
    00:00 -2°C° 0 mm 1 mps 757 mmHg 50%
    01:00 -2°C° 0 mm 1 mps 757 mmHg 50%
    02:00 -2°C° 0 mm 1 mps 757 mmHg 49%
    03:00 -2°C° 0 mm 1 mps 757 mmHg 47%
    04:00 -1°C° 0 mm 1 mps 757 mmHg 46%
    05:00 -1°C° 0 mm 1 mps 757 mmHg 46%
    06:00 -1°C° 0 mm 1 mps 757 mmHg 45%
    07:00 -1°C° 0 mm 1 mps 757 mmHg 45%
    08:00 -2°C° 0 mm 2 mps 756 mmHg 40%
    09:00 -1°C° 0 mm 2 mps 756 mmHg 36%
    10:00 +1°C° 0 mm 2 mps 756 mmHg 31%
    11:00 +2°C° 0 mm 2 mps 756 mmHg 29%
    12:00 +3°C° 0 mm 2 mps 756 mmHg 27%
    13:00 +3°C° 0 mm 3 mps 755 mmHg 25%
    14:00 +4°C° 0 mm 2 mps 755 mmHg 29%
    15:00 +4°C° 0 mm 2 mps 755 mmHg 34%
    16:00 +3°C° 0 mm 2 mps 755 mmHg 38%
    17:00 +2°C° 0 mm 2 mps 755 mmHg 41%
    18:00 +1°C° 0 mm 2 mps 755 mmHg 44%
    19:00 -1°C° 0 mm 2 mps 755 mmHg 47%
    20:00 -1°C° 0 mm 2 mps 755 mmHg 48%
    21:00 -1°C° 0 mm 3 mps 755 mmHg 49%
    22:00 -1°C° 0 mm 3 mps 755 mmHg 49%
    23:00 -1°C° 0 mm 3 mps 755 mmHg 50%

    25 February, Monday

    Time Temperature Precipitation Wind Pressure Humidity
    00:00 -1°C° 0 mm 3 mps 755 mmHg 51%
    01:00 -1°C° 0 mm 3 mps 755 mmHg 53%
    02:00 -1°C° 0 mm 3 mps 755 mmHg 53%
    03:00 -2°C° 0 mm 4 mps 755 mmHg 54%
    04:00 -2°C° 0 mm 4 mps 754 mmHg 55%
    05:00 -2°C° 0 mm 4 mps 754 mmHg 57%
    06:00 -2°C° 0 mm 4 mps 754 mmHg 58%
    07:00 -2°C° 0 mm 4 mps 754 mmHg 60%
    08:00 -1°C° 0 mm 4 mps 754 mmHg 58%
    09:00 0°C° 0 mm 4 mps 754 mmHg 56%
    10:00 +2°C° 0 mm 5 mps 754 mmHg 54%
    11:00 +3°C° 0 mm 5 mps 754 mmHg 56%
    12:00 +5°C° 0 mm 5 mps 754 mmHg 58%
    13:00 +6°C° 0 mm 5 mps 754 mmHg 60%
    14:00 +5°C° 0 mm 4 mps 754 mmHg 64%
    15:00 +5°C° 0 mm 4 mps 753 mmHg 68%
    16:00 +5°C° 0 mm 3 mps 753 mmHg 72%
    17:00 +4°C° 0 mm 3 mps 753 mmHg 78%
    18:00 +4°C° 0 mm 2 mps 753 mmHg 84%
    19:00 +2°C° 0 mm 2 mps 754 mmHg 90%
    20:00 +2°C° 0 mm 2 mps 753 mmHg 91%
    21:00 +2°C° 0 mm 2 mps 753 mmHg 92%
    22:00 +1°C° 0 mm 2 mps 753 mmHg 93%
    23:00 +1°C° 0 mm 2 mps 753 mmHg 93%

    26 February, Tuesday

    Time Temperature Precipitation Wind Pressure Humidity
    00:00 0°C° 0 mm 3 mps 752 mmHg 93%
    01:00 0°C° 0 mm 3 mps 752 mmHg 93%
    02:00 0°C° 0 mm 3 mps 751 mmHg 92%
    03:00 -1°C° 0 mm 4 mps 751 mmHg 92%
    04:00 -1°C° 0 mm 4 mps 750 mmHg 91%
    05:00 -1°C° 0 mm 5 mps 750 mmHg 89%
    06:00 0°C° 0 mm 5 mps 749 mmHg 86%
    07:00 -1°C° 0 mm 6 mps 748 mmHg 84%
    08:00 -1°C° 0 mm 6 mps 748 mmHg 79%
    09:00 +1°C° 0 mm 6 mps 748 mmHg 74%
    10:00 +2°C° 0 mm 6 mps 747 mmHg 69%
    11:00 +2°C° 0 mm 6 mps 747 mmHg 70%
    12:00 +2°C° 0 mm 6 mps 747 mmHg 72%
    13:00 +3°C° 0 mm 6 mps 747 mmHg 73%
    14:00 +3°C° 0 mm 6 mps 747 mmHg 72%
    15:00 +4°C° 0 mm 6 mps 746 mmHg 71%
    16:00 +4°C° 0 mm 6 mps 746 mmHg 70%
    17:00 +3°C° 0 mm 6 mps 746 mmHg 74%
    18:00 +2°C° 0 mm 6 mps 747 mmHg 78%
    19:00 +2°C° 0 mm 6 mps 747 mmHg 81%
    20:00 +1°C° 0 mm 5 mps 747 mmHg 79%
    21:00 +1°C° 0 mm 5 mps 747 mmHg 76%
    22:00 +1°C° 0 mm 5 mps 747 mmHg 74%
    23:00 0°C° 0 mm 5 mps 747 mmHg 76%

    27 February, Wednesday

    Time Temperature Precipitation Wind Pressure Humidity
    00:00 -1°C° 0 mm 4 mps 747 mmHg 78%
    01:00 -1°C° 0 mm 4 mps 748 mmHg 80%
    02:00 -1°C° 0 mm 4 mps 748 mmHg 83%
    03:00 -2°C° 0 mm 4 mps 748 mmHg 85%
    04:00 -1°C° 0 mm 3 mps 748 mmHg 88%
    05:00 -1°C° 0 mm 3 mps 748 mmHg 89%
    06:00 -1°C° 0 mm 3 mps 748 mmHg 90%
    07:00 -2°C° 0 mm 3 mps 748 mmHg 91%
    08:00 0°C° 0 mm 3 mps 748 mmHg 83%
    09:00 +1°C° 0 mm 3 mps 749 mmHg 75%
    10:00 +3°C° 0 mm 3 mps 749 mmHg 67%
    11:00 +4°C° 0 mm 3 mps 748 mmHg 61%
    12:00 +5°C° 0 mm 3 mps 748 mmHg 55%
    13:00 +7°C° 0 mm 3 mps 748 mmHg 49%
    14:00 +7°C° 0 mm 3 mps 747 mmHg 50%
    15:00 +7°C° 0 mm 3 mps 747 mmHg 50%
    16:00 +7°C° 0 mm 3 mps 746 mmHg 50%
    17:00 +5°C° 0 mm 3 mps 746 mmHg 56%
    18:00 +4°C° 0 mm 3 mps 746 mmHg 61%
    19:00 +3°C° 0 mm 3 mps 745 mmHg 66%
    20:00 +1°C° 0 mm 4 mps 745 mmHg 66%
    21:00 +1°C° 0 mm 4 mps 744 mmHg 65%
    22:00 +1°C° 0 mm 4 mps 744 mmHg 65%
    23:00 +1°C° 0 mm 4 mps 743 mmHg 61%
    Show more